Theta_e
324 318 312 319 309 310 306 302 294 292 286 286 283 286 289 291 292 292 293 293 295 296 295 301 298 299 298 298 299 299 302 305 301 295 291 299 320 336 334 334 339 341 342 343 342 340 343 346 348 349 349 348 348 348 348 346 345 345 345 344 343 342 342 341 342 341 340 341 346 346 346 346 345 343 340 339 338 337 337 338 339 339 339 340 341 344 343 342 342 342 341 340 339 339 338 338 337
318 313 314 314 312 308 304 296 288 282 284 283 285 284 287 289 292 291 293 291 292 300 301 308 308 309 308 308 307 307 302 315 301 312 320 330 335 334 335 337 340 340 342 343 342 339 340 345 346 348 348 349 349 348 346 346 346 345 344 344 343 342 342 341 340 341 340 341 343 346 347 346 346 344 341 339 337 337 338 339 339 339 339 340 341 342 343 342 341 341 339 338 338 337 337 337 337
315 313 314 311 310 304 299 297 293 280 284 283 283 285 288 290 290 291 290 290 295 304 305 306 302 301 303 304 301 297 297 322 319 321 327 333 330 332 337 340 340 342 343 343 342 340 342 344 345 348 349 349 348 348 347 347 346 345 344 344 343 342 342 342 342 341 340 339 346 347 346 346 345 344 341 340 338 336 338 339 339 340 340 340 339 340 341 342 342 341 342 343 343 341 340 340 340
313 315 311 308 308 299 294 288 286 285 285 280 281 286 288 289 289 291 290 291 302 301 298 299 302 301 305 302 303 310 315 318 324 326 325 329 328 336 338 339 341 342 343 343 342 341 342 343 344 347 348 348 348 347 347 346 345 345 344 344 343 342 342 342 340 339 339 339 346 346 345 345 344 344 341 339 338 337 336 338 339 338 339 340 340 340 340 342 342 341 341 341 341 340 339 339 338
316 316 309 305 302 302 290 288 283 281 284 281 283 284 288 288 291 289 296 294 298 295 295 298 303 307 306 306 306 303 303 319 325 327 328 329 333 338 338 339 340 341 342 343 342 340 340 342 344 346 348 348 348 347 347 346 345 345 344 343 343 342 342 342 341 339 338 341 345 345 345 345 345 343 340 338 338 336 336 336 336 337 338 338 339 339 340 340 341 341 340 339 339 339 339 339 339
309 308 308 305 302 300 292 288 287 284 282 285 285 289 287 290 293 292 297 296 295 294 295 297 302 304 306 308 308 305 309 314 321 324 328 329 336 339 339 339 339 340 341 343 342 339 337 341 344 345 349 348 348 347 346 346 346 345 344 343 343 342 341 342 342 341 340 341 343 344 343 344 343 342 338 338 337 336 336 336 336 337 338 339 339 342 343 343 343 342 341 341 340 341 339 340 340
310 304 302 303 299 297 292 284 283 282 290 287 288 289 292 291 293 293 295 297 297 296 293 300 302 302 301 303 309 312 314 319 320 322 327 330 338 339 338 338 339 339 341 342 342 340 339 341 346 347 348 348 348 347 347 346 346 345 343 343 343 343 342 341 341 341 340 338 341 343 343 343 343 343 339 336 337 336 336 336 336 336 337 337 338 339 342 342 342 342 341 341 341 341 339 339 339
310 306 300 295 292 287 285 282 284 283 290 287 290 292 292 294 291 293 293 295 295 297 300 301 297 297 298 306 303 313 314 317 321 321 326 335 338 338 338 338 337 338 340 342 342 341 343 340 345 345 347 348 347 347 347 346 345 345 344 343 342 342 342 341 341 340 339 338 340 341 342 343 343 343 339 336 336 335 335 336 336 337 337 337 337 338 338 340 340 340 340 339 339 339 339 338 339
304 303 298 296 290 285 282 286 287 286 286 289 290 292 301 293 291 293 292 292 293 293 299 303 297 296 295 303 303 310 313 318 321 324 332 336 337 337 338 337 336 338 340 341 342 342 342 340 342 346 345 348 347 347 347 347 345 345 344 343 343 342 342 341 341 340 340 339 338 342 343 343 343 342 340 337 335 334 335 336 337 337 337 337 338 337 338 339 339 339 339 338 338 338 337 337 337
301 301 295 292 286 289 281 285 287 289 291 291 293 295 293 291 292 292 292 293 294 295 299 295 294 296 298 302 304 312 317 316 323 327 332 336 337 336 336 337 337 338 339 340 342 342 341 343 339 341 343 346 347 347 347 347 346 345 344 343 343 342 342 341 341 341 339 339 337 338 340 341 341 341 341 338 335 334 335 336 335 336 336 336 336 336 336 336 337 337 338 338 337 337 336 336 336
296 296 294 292 282 283 285 285 283 285 292 289 291 291 292 292 292 290 292 294 293 296 296 296 299 300 302 303 303 309 313 318 324 327 332 335 336 334 333 337 339 339 338 340 342 343 342 341 340 338 341 342 345 346 346 347 346 345 344 343 342 342 341 341 341 341 339 338 337 336 339 338 340 340 338 337 335 334 334 334 334 335 336 336 336 336 336 336 337 338 338 338 337 336 336 335 336
297 293 292 283 284 284 282 284 286 285 287 289 295 293 292 292 291 292 292 294 294 294 296 297 299 302 300 297 302 308 311 320 322 326 329 332 334 333 334 337 339 340 340 341 342 342 342 341 341 340 337 337 341 343 344 344 345 345 344 343 342 342 341 341 340 340 339 338 337 336 336 338 339 338 337 336 335 334 334 335 334 334 334 334 334 335 336 336 337 337 337 336 336 335 336 335 335
295 292 288 287 287 287 285 285 288 292 284 288 293 295 292 292 293 291 291 294 292 293 294 296 301 300 295 299 301 306 317 320 320 324 328 331 330 331 334 337 339 340 341 341 342 342 342 341 341 340 336 334 335 336 339 340 342 344 344 343 342 342 342 341 340 340 339 338 338 338 337 339 339 337 336 335 335 334 334 334 334 333 333 333 334 335 336 336 336 336 336 335 335 335 335 335 334
295 293 291 292 284 283 284 285 284 289 287 289 289 291 293 293 292 291 293 294 293 293 295 294 303 299 299 298 299 306 313 317 320 324 326 328 330 333 336 338 338 339 340 341 341 342 341 341 341 340 336 336 337 335 333 337 340 342 342 341 341 341 341 341 340 340 339 339 339 338 337 338 337 337 336 335 334 334 335 335 335 333 333 334 334 335 336 336 335 335 334 334 334 334 333 333 332
301 293 288 284 284 286 284 288 288 285 288 288 293 292 292 295 291 290 294 293 294 292 297 301 302 298 293 295 292 305 315 319 322 322 326 327 330 334 336 337 337 338 339 341 341 341 340 340 340 339 339 338 337 336 334 336 334 338 339 339 339 340 340 339 339 338 337 338 337 335 334 332 332 333 335 335 335 333 333 332 335 334 333 333 335 334 334 334 334 333 333 333 333 332 332 331 330
298 293 288 288 286 284 287 285 282 285 287 288 292 290 293 293 290 294 294 294 295 295 296 301 301 298 297 296 303 301 316 319 322 325 327 328 331 333 335 336 336 337 338 339 340 340 340 339 338 338 338 338 337 336 333 334 332 332 335 336 336 337 337 337 335 333 331 330 330 330 327 326 325 325 326 328 330 333 331 328 332 332 332 332 333 333 333 333 332 332 332 332 332 331 330 329 328
296 294 292 283 287 286 287 286 287 287 286 288 289 290 294 292 292 293 293 295 296 296 298 301 301 306 299 299 303 310 315 320 323 325 326 328 330 330 332 334 334 335 336 338 338 339 340 339 338 337 337 337 337 337 336 335 333 329 331 330 332 334 334 333 332 326 323 322 323 322 323 323 322 323 322 322 322 324 323 325 330 332 331 331 332 332 332 332 332 331 330 330 328 326 323 323 324
296 289 285 286 284 285 288 288 289 287 289 290 290 290 292 291 293 296 296 295 292 294 299 295 303 308 314 314 308 309 318 323 324 325 325 326 328 328 330 331 332 331 333 334 337 338 338 338 338 337 337 337 336 337 338 338 335 332 333 332 330 330 328 326 326 326 326 322 320 322 322 322 321 320 321 325 322 323 323 323 327 331 331 332 332 331 331 331 330 329 329 327 324 321 316 311 313
290 286 287 288 285 289 291 289 290 290 291 290 291 288 291 292 292 294 294 292 293 296 295 294 302 302 306 309 312 317 320 322 324 324 324 326 327 328 329 330 331 332 332 333 335 337 338 338 338 337 337 336 336 336 337 338 337 335 333 333 330 326 327 326 325 324 322 322 321 321 320 320 319 318 319 321 321 321 323 323 326 328 330 329 330 330 330 329 329 328 325 323 320 315 309 308 308
292 292 290 284 289 289 289 288 290 290 290 291 290 290 290 292 293 293 295 291 291 293 292 294 296 300 304 310 311 317 320 320 322 323 323 324 327 328 329 329 330 331 333 333 334 336 338 337 337 337 337 337 335 335 336 337 337 337 336 335 333 327 325 325 323 322 322 321 321 321 320 318 318 319 322 322 321 321 322 322 322 323 326 325 326 326 327 326 324 322 320 317 313 309 307 307 307
293 289 285 291 289 293 292 288 288 288 290 290 290 289 290 291 291 293 290 293 291 291 290 297 296 296 308 313 312 316 319 320 321 321 322 324 327 329 330 331 331 333 334 334 334 334 336 337 337 337 337 337 336 335 335 336 337 337 336 336 334 327 324 323 323 322 321 321 320 320 319 318 317 318 318 319 319 319 319 319 316 313 313 313 314 310 309 309 308 307 307 307 306 307 306 306 307
291 292 289 290 288 292 293 288 290 289 287 290 287 292 291 291 292 289 292 291 290 294 297 295 297 298 311 313 315 315 318 320 321 320 322 324 326 328 329 330 332 334 334 332 333 334 335 337 337 337 337 337 336 335 335 336 336 337 336 336 334 329 325 322 322 321 321 320 320 319 318 317 317 317 317 317 318 318 318 316 312 309 308 308 308 306 305 305 305 305 305 305 304 305 304 304 304
294 289 288 287 287 293 291 290 290 288 289 290 289 291 291 291 292 287 291 294 291 292 293 294 293 303 312 315 316 317 317 319 320 321 323 324 325 328 329 330 331 332 333 333 334 334 335 336 336 337 336 337 337 337 336 335 335 337 337 336 334 331 327 323 321 320 320 320 319 318 318 316 316 316 317 317 317 317 316 314 310 307 305 304 305 305 304 304 304 304 304 303 303 303 303 303 303
288 291 289 292 287 293 288 291 288 287 291 290 290 291 292 290 293 289 289 293 291 291 289 289 294 310 313 314 316 318 318 319 319 321 322 325 326 328 329 330 332 333 333 333 334 335 334 335 336 336 336 337 336 337 336 335 336 336 337 334 334 332 328 325 321 321 320 320 319 319 318 317 317 316 316 317 316 315 315 312 308 304 303 302 303 304 303 302 303 303 303 303 303 303 303 303 303
291 291 289 290 289 290 288 286 286 287 288 289 289 291 292 288 290 289 289 294 293 291 293 297 307 310 310 314 315 316 316 317 318 318 317 320 323 325 327 330 331 332 331 333 334 335 335 335 336 335 336 336 337 337 336 335 336 336 336 334 334 329 331 328 324 320 319 319 319 318 317 316 315 316 316 316 315 315 313 311 307 304 302 301 302 302 303 302 302 303 303 302 302 302 302 301 301
289 291 288 289 291 289 288 289 287 288 290 288 291 290 289 288 289 291 293 292 290 293 299 302 307 308 310 312 315 315 315 316 317 316 318 318 315 322 326 328 330 330 332 333 334 335 335 335 335 335 335 335 336 337 336 335 335 335 336 334 335 329 333 331 326 322 320 319 319 318 318 317 316 316 315 314 316 315 313 309 306 303 301 301 301 301 302 302 302 302 302 302 301 300 300 300 300
288 288 288 290 290 290 290 291 289 288 290 288 291 289 291 290 290 288 290 288 289 296 298 300 306 307 309 310 312 313 314 315 316 316 312 313 315 319 324 327 328 330 331 331 333 334 335 335 335 335 336 334 336 336 336 335 335 335 335 335 335 333 334 332 328 325 322 320 319 318 317 317 316 315 315 314 315 315 313 309 305 303 301 300 301 301 301 302 301 301 301 300 300 299 299 298 299
289 290 289 290 286 290 289 290 290 289 293 287 290 290 290 289 290 289 290 289 290 294 296 300 300 304 307 308 309 311 312 313 312 310 315 314 317 318 321 325 327 328 329 331 332 333 334 335 335 336 336 336 335 335 335 335 334 335 335 336 335 334 334 333 330 327 322 322 320 318 317 316 316 315 314 314 314 314 312 310 305 303 300 300 300 301 301 301 300 299 299 299 299 298 297 297 297
289 292 291 287 284 292 289 291 290 289 292 290 289 291 290 290 289 289 287 288 293 292 294 296 298 299 301 304 306 308 312 309 308 312 315 317 318 319 320 323 325 326 329 330 331 331 333 334 335 336 337 336 335 336 336 336 335 335 335 335 335 334 334 334 331 328 325 323 322 319 317 316 316 315 314 314 313 315 315 312 307 305 302 300 300 301 301 301 300 300 299 299 297 296 296 296 297
290 288 284 287 284 285 290 287 289 291 291 289 289 285 283 286 291 292 290 285 290 293 292 292 294 294 294 297 304 307 306 307 309 313 315 316 316 316 318 320 321 324 326 328 329 330 332 333 333 335 336 336 335 337 336 336 336 335 335 335 334 335 334 334 332 331 327 325 324 322 320 318 316 316 315 314 315 316 316 314 310 307 304 302 302 302 301 301 301 300 299 299 299 298 297 296 296
289 288 284 282 285 284 287 288 287 291 290 287 289 283 281 282 287 284 285 286 291 291 290 291 291 291 291 292 296 303 306 307 311 312 312 313 314 314 316 316 318 320 319 320 325 329 330 331 332 332 332 334 334 335 334 335 336 335 335 335 335 334 334 334 334 333 329 327 326 323 321 319 318 318 317 316 315 315 315 314 311 308 305 302 301 302 302 301 301 300 300 298 298 297 296 295 295
281 285 282 279 282 281 284 287 287 289 291 287 288 283 284 285 285 285 287 288 288 290 289 289 288 290 290 290 292 295 300 303 306 308 310 311 312 314 314 315 316 316 318 319 320 323 327 329 330 330 330 331 333 333 335 335 334 335 334 329 334 335 334 334 333 333 332 329 327 325 322 320 319 319 318 317 315 314 313 314 312 309 305 302 302 301 301 301 301 300 300 299 297 295 295 294 294
281 282 279 283 282 280 284 291 286 288 291 289 288 284 282 288 288 287 287 287 288 288 288 287 288 288 289 290 291 292 293 294 296 300 305 309 311 313 314 314 315 316 317 317 317 317 321 325 326 328 329 330 331 332 332 333 334 333 334 333 333 333 333 333 334 332 332 330 328 327 324 321 319 319 319 318 316 314 312 312 312 308 305 302 301 301 301 302 300 300 299 299 299 296 295 294 293
285 280 281 280 282 281 284 285 288 288 289 289 286 287 283 287 286 284 286 288 289 289 289 289 289 289 290 289 290 292 292 293 295 296 298 302 307 309 312 313 313 314 315 316 317 318 319 320 323 325 328 329 330 330 330 331 332 331 331 332 330 332 333 334 334 334 333 332 330 328 327 324 320 320 319 318 317 315 312 310 309 308 306 303 301 300 300 300 301 300 299 298 297 296 295 294 293
280 283 282 283 281 280 281 285 288 289 288 288 286 287 289 291 291 291 290 288 290 290 291 291 290 290 290 289 290 291 292 293 296 297 297 297 299 304 307 309 311 311 314 315 316 317 317 318 319 320 322 326 328 329 329 329 330 329 330 329 328 329 330 330 331 332 333 333 331 330 328 326 322 322 320 318 317 315 313 310 309 308 306 303 301 300 299 299 300 300 299 296 296 296 296 295 292
285 285 283 279 283 283 283 283 284 288 288 288 285 287 288 289 290 292 291 288 289 289 287 288 289 290 291 291 291 291 293 294 296 295 295 295 296 298 301 304 307 309 310 312 313 315 316 317 317 319 320 323 325 327 327 326 326 326 326 324 327 329 330 327 328 330 331 331 331 331 330 329 326 323 322 320 318 316 314 311 308 308 307 303 300 299 298 298 298 298 297 295 293 293 292 291 292
284 281 279 281 280 282 282 284 287 285 288 286 284 284 284 289 291 292 293 289 288 288 290 290 290 290 290 291 292 293 293 295 295 294 295 295 296 295 296 298 303 305 308 310 312 314 316 317 316 318 320 321 323 324 324 324 323 323 324 325 325 326 327 329 328 328 328 329 329 329 329 330 328 325 323 322 320 316 316 312 310 309 308 304 301 300 299 299 299 299 296 295 294 292 290 291 291
286 282 282 281 282 285 286 288 286 285 288 284 280 284 287 288 289 290 290 287 289 290 290 290 291 291 291 290 291 292 294 292 292 293 293 291 293 293 293 295 299 302 305 308 310 313 315 316 316 318 318 320 322 324 324 324 325 325 324 325 325 325 323 323 325 327 328 327 327 328 328 328 328 327 324 325 321 319 316 312 309 307 307 305 302 301 300 298 298 297 296 294 295 293 291 291 291
282 284 280 283 283 282 284 285 285 285 288 283 280 284 288 290 290 291 290 291 291 289 290 291 291 291 291 291 291 292 292 293 291 291 290 291 291 291 293 294 298 302 303 307 309 310 311 314 316 316 317 319 320 321 323 323 324 324 324 323 325 320 318 323 323 322 322 324 326 328 328 328 329 327 326 324 324 321 319 315 311 309 308 306 304 302 299 298 297 297 296 295 294 294 293 291 291
281 281 283 283 282 285 284 284 285 285 285 286 284 283 288 288 286 287 290 289 288 287 287 289 289 291 292 293 291 292 292 293 293 291 292 290 290 290 290 294 297 299 301 302 306 309 311 312 314 315 315 316 318 319 318 322 320 317 317 314 315 318 315 312 316 312 314 316 319 318 323 328 328 327 326 326 325 324 321 317 313 310 308 307 305 302 300 297 297 297 297 297 296 292 290 289 292
282 280 280 282 285 283 282 286 284 281 284 282 281 284 284 279 281 281 283 282 283 284 284 286 289 289 290 290 290 290 291 292 292 292 291 290 290 291 292 294 294 298 301 303 305 308 311 311 313 314 313 314 315 314 316 314 313 311 308 308 308 309 308 309 311 312 313 314 314 316 318 316 319 324 325 325 324 325 323 320 315 311 309 307 306 303 299 298 297 298 297 297 296 295 291 290 290
285 282 283 283 282 284 284 283 285 277 282 281 280 279 274 276 278 280 282 282 286 284 285 288 288 286 286 288 290 290 291 291 292 293 293 291 289 289 289 290 293 296 299 301 301 306 307 308 309 310 310 310 312 312 313 314 315 315 312 313 312 308 312 310 312 315 313 312 315 316 316 317 318 319 320 322 323 322 322 321 318 314 310 308 306 304 302 299 298 298 298 298 296 297 294 290 289
283 286 283 283 283 283 282 283 281 279 279 282 280 280 275 277 281 285 283 282 286 286 284 287 287 287 284 287 288 288 288 289 288 289 290 290 290 289 290 291 292 295 297 297 299 302 304 306 307 309 311 309 309 309 310 312 313 314 314 316 317 315 315 314 310 310 313 312 310 313 315 315 316 318 318 318 319 320 321 321 319 315 312 309 306 306 303 300 299 298 298 298 297 297 296 292 291
285 283 282 283 284 284 282 281 282 279 279 282 278 275 277 278 283 280 278 281 284 285 288 288 288 286 286 286 286 286 287 286 288 288 289 288 289 289 291 291 292 295 294 296 298 300 303 305 305 307 306 306 305 307 308 311 313 312 312 313 313 314 314 314 309 308 304 304 307 309 310 313 313 314 316 315 316 317 317 319 319 317 314 312 308 306 305 303 301 299 298 298 298 298 296 295 293
284 283 284 283 283 281 280 280 278 278 280 280 276 282 278 277 280 280 279 284 283 286 287 285 285 286 286 287 288 287 286 285 285 287 288 289 290 291 291 292 292 292 294 295 297 298 300 302 302 302 303 303 302 305 307 308 310 311 311 311 310 309 309 306 300 299 302 298 302 302 307 310 311 311 312 313 313 314 313 316 317 315 314 312 307 308 307 305 302 300 298 297 297 297 296 296 295
285 283 283 282 281 280 279 277 279 278 278 272 278 280 275 277 278 279 278 283 283 283 283 285 286 287 287 289 290 290 288 286 285 285 287 289 290 291 290 290 291 292 292 295 296 297 298 299 300 301 301 300 300 302 304 306 306 306 308 307 308 308 301 298 297 298 298 296 301 301 304 306 308 308 308 309 310 310 311 311 313 314 314 312 308 308 307 305 303 301 299 298 298 297 297 296 296
286 283 286 283 280 279 277 276 275 274 270 273 275 276 278 276 279 279 282 283 281 282 283 282 286 287 287 287 288 290 290 289 288 287 287 288 288 289 289 291 291 291 291 293 294 295 295 298 297 300 299 298 299 302 303 304 305 304 307 306 307 307 303 302 298 297 295 295 299 299 300 303 304 306 306 307 308 308 309 309 310 311 312 310 308 309 308 307 304 302 301 299 298 298 298 297 296
286 283 280 284 280 277 277 271 274 272 267 271 275 277 277 274 275 280 280 281 281 286 286 285 286 288 288 287 288 289 288 287 288 287 288 288 288 289 289 291 291 291 293 293 292 293 295 294 297 299 296 297 297 299 300 302 303 304 304 305 305 306 304 303 302 303 299 300 300 300 298 296 297 298 299 302 304 305 306 308 308 310 310 311 310 310 309 308 306 304 302 300 299 299 298 297 296
283 282 284 277 272 269 273 266 273 270 268 277 276 276 278 278 281 283 284 285 283 282 285 286 285 287 288 288 288 288 288 287 287 287 287 288 288 288 289 290 290 292 293 293 294 293 293 294 296 298 298 295 297 297 300 301 301 302 303 303 303 303 303 303 303 302 300 301 300 299 297 298 296 296 298 300 301 302 305 306 307 308 309 310 310 310 310 309 307 305 303 301 300 299 298 298 296
283 285 279 274 270 267 264 258 260 265 272 275 277 277 277 278 280 286 289 290 287 283 283 284 285 287 289 289 288 287 288 287 288 288 287 288 288 289 289 290 290 290 291 292 292 292 293 294 294 296 298 294 295 296 298 299 300 301 301 302 303 302 302 301 302 302 301 300 300 300 299 300 299 299 299 300 301 301 300 302 304 305 307 308 309 310 310 309 308 306 304 302 301 300 300 298 298
285 282 283 280 268 265 265 263 271 271 270 273 274 274 273 275 284 286 284 286 283 283 284 283 284 285 286 285 285 285 286 287 285 287 289 290 290 289 289 289 288 288 289 290 291 293 292 294 293 294 295 294 294 296 296 298 299 299 298 300 300 299 301 300 301 301 300 298 297 298 299 298 299 299 299 300 298 299 300 300 301 302 302 304 306 308 308 308 308 307 305 303 302 302 300 299 299
282 279 280 278 276 274 271 265 265 264 268 269 273 275 276 280 282 284 284 283 284 284 283 283 285 286 283 283 284 285 286 287 286 288 290 290 289 289 289 288 288 288 288 288 291 292 293 293 293 294 296 295 294 295 296 297 298 297 297 298 299 299 298 298 297 295 297 298 298 298 299 298 298 298 298 297 297 298 299 299 299 300 302 303 305 306 307 308 308 307 306 304 303 302 301 299 299
283 282 277 279 278 278 269 267 269 269 267 272 268 277 280 280 282 287 284 283 286 285 283 284 284 284 282 285 285 284 285 285 286 288 288 290 290 290 290 289 288 287 288 290 291 292 293 293 293 293 294 292 294 295 296 296 296 295 297 297 297 297 297 298 299 298 298 297 297 298 298 298 296 296 297 296 297 296 298 298 298 298 299 300 302 304 306 306 307 306 305 304 303 302 300 300 299
283 278 281 281 281 279 277 272 264 261 268 271 269 275 275 275 278 280 280 284 286 283 283 282 282 282 285 286 285 285 286 285 285 286 286 286 287 288 289 288 288 289 289 289 290 291 292 293 293 294 293 295 295 294 295 295 296 296 296 296 297 298 298 298 298 298 297 297 296 295 294 295 296 297 296 296 296 296 296 296 297 297 298 299 300 301 303 304 304 304 304 304 304 302 301 300 299
283 280 284 284 278 276 275 270 269 265 264 266 269 271 273 277 280 279 282 282 283 286 286 285 287 287 286 285 285 285 283 285 287 288 289 289 288 289 289 289 289 289 289 289 290 290 291 291 292 293 295 295 295 295 294 294 295 296 297 297 297 297 296 297 297 297 295 296 296 296 296 297 295 294 294 294 295 294 294 294 295 296 297 298 300 300 301 302 302 302 302 302 301 300 299 298 298
285 285 284 284 279 275 272 275 269 271 266 262 269 265 277 278 278 279 284 280 280 282 282 285 285 285 284 285 285 286 285 284 285 288 289 289 290 290 289 290 290 290 290 290 290 290 292 292 292 292 292 292 292 292 293 294 294 294 295 293 293 295 296 296 296 296 296 296 297 296 296 295 296 295 294 294 293 293 293 293 293 295 295 296 298 298 299 300 300 301 301 299 299 299 298 297 296
282 282 281 285 279 281 279 276 273 273 263 261 265 270 273 276 280 281 286 284 282 283 287 287 286 285 284 284 285 286 285 286 288 288 290 291 291 291 290 287 287 287 287 288 290 292 292 292 293 292 294 295 294 294 292 294 293 293 293 294 294 293 294 295 294 295 295 296 295 295 295 296 292 293 292 293 293 293 294 293 293 293 295 296 296 296 297 297 298 298 298 298 296 296 296 296 295
286 285 283 286 280 277 274 275 275 266 271 268 262 273 273 278 280 285 285 286 285 283 285 285 285 282 282 286 288 285 287 286 284 287 287 288 287 288 288 288 287 288 290 289 289 290 291 292 293 293 292 294 294 294 293 294 292 293 292 293 293 291 293 292 293 293 294 295 294 294 293 290 292 293 292 293 293 293 292 292 293 293 293 293 294 296 295 295 295 295 295 297 296 295 295 295 295
Wind_Speed
5 5 2 1 3 2 4 7 2 2 3 0 0 1 2 0 1 1 1 1 1 1 1 1 1 4 3 3 7 3 1 8 6 7 3 1 2 4 5 5 8 8 7 4 2 2 4 8 10 12 13 13 12 12 12 12 11 11 12 12 13 13 13 13 14 13 12 12 15 15 15 17 19 19 18 17 17 18 17 18 18 17 17 17 18 20 19 20 20 21 21 20 20 20 20 20 19
4 3 1 1 1 1 0 1 4 3 6 2 2 1 1 1 1 4 7 4 3 1 2 5 5 5 7 7 7 3 2 3 5 1 1 1 4 4 3 7 9 11 7 4 2 2 3 7 10 11 13 13 13 12 12 11 11 11 12 12 12 12 13 13 13 12 12 13 14 16 15 16 18 18 18 17 16 16 18 18 18 17 17 18 18 19 19 19 19 19 18 19 19 18 19 19 19
3 3 1 3 4 5 2 4 1 1 5 1 3 5 1 2 3 4 5 4 2 4 4 4 3 2 1 1 1 1 2 1 3 2 1 4 9 5 6 7 8 9 9 4 3 3 3 5 9 11 13 13 13 13 12 11 11 11 12 12 12 12 12 13 12 12 12 12 16 16 16 17 18 18 18 17 16 16 17 18 17 16 16 17 17 18 18 19 19 19 18 20 20 19 19 19 19
2 3 3 3 0 3 1 4 4 7 3 5 1 2 3 4 4 5 3 2 5 2 0 0 1 1 0 2 0 1 2 1 1 3 4 6 1 6 8 8 8 9 6 4 4 3 3 6 7 9 12 13 13 12 11 11 11 11 11 12 12 12 12 12 12 11 12 13 16 15 15 16 17 18 18 16 16 16 17 17 17 16 17 16 16 18 18 19 18 19 18 18 19 19 19 19 19
0 2 2 3 4 1 3 1 4 2 2 5 3 2 3 4 5 4 1 2 3 0 1 0 2 2 0 3 1 0 1 0 0 2 1 1 0 7 8 7 7 8 7 6 4 3 3 6 7 8 12 13 13 12 12 11 11 11 11 12 12 12 12 11 12 12 12 14 14 14 16 17 17 18 17 16 15 14 16 16 17 16 16 16 15 16 16 17 17 17 18 18 18 19 18 18 19
2 2 4 2 1 2 5 2 1 3 5 5 1 3 4 6 5 5 2 1 3 1 3 1 1 3 1 1 1 0 1 2 3 2 3 3 6 8 9 7 8 6 7 5 4 3 3 5 8 8 12 13 13 13 12 12 11 11 11 12 12 11 11 11 11 11 11 12 14 15 15 16 17 18 16 16 15 15 15 16 17 16 16 15 16 18 18 17 18 18 19 19 19 18 18 18 19
1 4 5 4 3 4 4 2 3 2 0 4 1 2 5 4 4 5 2 1 0 1 2 0 1 2 4 1 1 1 2 0 2 1 5 3 7 8 10 7 7 8 6 5 4 2 3 4 7 10 10 10 13 12 12 12 11 11 11 12 12 11 11 11 11 11 11 12 13 14 14 15 16 18 17 17 15 14 16 16 15 15 15 15 15 16 17 18 18 18 18 18 18 18 18 18 18
2 2 1 1 1 3 2 1 1 3 0 4 0 1 4 6 5 4 4 2 1 1 0 0 1 2 0 3 2 1 1 2 1 1 3 7 7 8 8 7 7 8 7 6 4 3 3 5 6 8 8 11 11 11 12 11 11 10 11 11 11 11 11 11 11 10 11 12 13 13 13 15 17 16 17 16 16 14 15 15 15 16 14 14 15 15 15 16 16 17 17 18 17 18 17 18 18
5 7 0 4 1 3 3 2 1 2 4 1 4 5 1 4 4 6 4 1 0 0 0 2 1 1 2 1 1 2 2 2 2 2 6 8 8 8 6 8 8 7 7 6 4 3 2 4 4 6 7 9 9 11 11 11 10 10 10 11 11 11 11 11 11 10 9 11 12 14 14 15 15 16 16 15 15 15 14 15 15 15 15 14 15 15 15 15 16 16 17 17 17 17 16 16 17
2 2 1 2 3 1 2 1 2 2 1 1 1 1 4 3 3 1 4 0 1 2 1 1 1 1 1 1 1 1 1 4 1 4 6 8 7 7 7 7 7 8 7 7 5 3 2 4 4 6 7 8 8 8 10 10 10 10 10 10 11 11 11 11 10 10 9 12 12 13 14 15 15 15 16 16 14 14 14 14 15 15 14 14 13 14 14 15 16 16 16 16 16 16 17 16 17
1 5 3 3 4 1 2 2 3 2 1 4 2 3 2 3 4 1 0 1 0 2 1 1 1 2 1 1 2 2 4 1 4 7 6 8 7 6 6 5 6 6 7 7 6 4 3 2 5 6 6 7 7 8 8 9 10 10 10 10 10 10 11 11 11 10 10 11 11 12 13 12 14 15 16 14 14 13 13 14 14 15 14 14 13 14 14 14 15 15 15 16 17 16 17 18 18
1 1 2 3 1 5 3 3 1 3 5 2 1 0 2 5 1 2 1 4 1 0 3 5 1 6 2 2 1 0 5 1 4 5 6 6 6 5 5 5 6 5 5 8 5 4 3 3 3 4 6 6 7 7 8 8 9 9 9 10 10 10 10 11 11 11 10 10 11 10 10 13 13 14 14 13 13 12 12 13 13 14 14 14 14 14 14 15 15 16 16 16 16 17 17 17 17
3 1 6 4 0 0 1 2 0 2 3 3 3 0 3 4 4 5 3 1 1 4 3 6 2 1 1 2 3 5 0 3 3 4 6 7 5 4 4 5 5 5 5 5 6 5 4 3 4 3 4 5 7 8 7 7 8 8 8 9 9 9 10 10 11 11 11 10 10 10 9 9 11 12 12 13 12 12 12 11 12 14 14 13 14 14 14 15 16 16 16 16 16 17 16 16 16
4 5 5 1 1 3 3 2 1 3 2 2 2 1 4 3 3 4 6 4 3 4 1 1 3 3 1 2 3 2 3 3 3 4 4 5 5 5 6 5 6 5 5 6 6 5 4 3 3 3 3 3 4 6 7 7 7 8 8 8 8 8 9 9 9 10 10 9 9 9 9 10 10 12 12 13 12 12 9 8 12 13 13 14 14 14 15 15 16 16 16 16 16 16 16 16 16
2 2 6 5 1 1 1 4 6 4 4 2 2 6 2 3 2 4 6 6 5 3 1 0 2 1 3 5 3 6 5 5 5 4 5 5 5 6 6 5 5 6 5 6 5 6 5 4 4 3 3 3 4 4 3 5 8 8 8 8 8 8 8 8 8 8 8 9 10 9 10 10 9 10 9 11 10 8 7 9 10 12 13 13 14 14 15 15 15 15 16 16 16 16 16 16 15
5 6 4 2 1 3 2 2 1 4 4 4 0 2 5 1 1 5 4 1 1 1 0 2 1 1 0 3 1 3 3 6 5 6 7 7 5 5 5 5 4 5 5 6 6 5 5 5 4 4 3 3 3 4 3 3 6 8 8 8 8 9 8 8 8 8 9 9 10 11 10 8 9 8 11 9 10 8 7 6 7 9 13 13 14 14 15 15 15 15 15 16 16 16 16 16 15
2 4 1 3 2 2 2 2 6 3 4 3 1 4 6 3 0 1 0 1 5 2 2 0 1 1 3 2 1 1 2 6 6 7 7 6 6 5 4 5 5 5 4 6 6 5 5 6 6 5 4 4 4 4 4 4 4 7 7 8 9 9 9 8 9 9 9 9 9 10 9 6 5 5 6 5 8 5 7 7 8 10 12 11 13 14 14 14 14 14 15 15 16 16 15 15 14
2 2 4 1 2 3 6 6 9 2 4 5 4 6 5 2 1 1 1 5 3 1 0 3 1 2 2 4 3 3 4 10 8 10 8 7 6 6 6 6 6 6 6 5 6 6 5 6 5 6 4 5 4 4 3 4 4 5 4 4 4 6 7 8 7 6 6 5 8 7 5 5 5 4 5 6 5 5 6 9 9 10 11 9 11 13 13 13 13 15 15 16 15 14 12 8 8
3 2 2 5 5 4 7 5 6 2 2 4 3 2 3 5 6 2 2 0 1 1 2 1 2 2 1 2 1 7 8 9 9 9 10 11 9 9 7 6 7 7 7 6 6 7 5 6 6 6 6 5 5 4 4 4 5 4 4 4 4 5 5 6 5 5 4 5 4 5 5 5 4 4 4 5 5 8 7 9 9 11 11 9 9 12 13 13 15 15 15 15 14 12 8 6 6
1 3 1 2 7 2 4 4 5 2 4 6 5 2 1 1 2 1 2 2 0 6 4 1 2 5 3 1 4 7 7 8 8 10 11 9 8 9 9 8 8 9 8 8 7 6 6 6 7 6 7 5 5 4 4 4 4 4 5 4 4 4 4 4 4 4 4 4 5 5 5 4 4 5 6 8 7 5 6 9 11 10 12 10 11 8 10 14 14 15 14 13 9 5 6 6 6
1 2 3 2 3 1 1 5 3 4 2 4 5 1 1 1 2 2 3 4 4 6 6 8 9 9 6 5 5 7 9 9 8 8 9 9 8 7 9 10 9 8 5 5 6 7 7 7 7 6 6 6 6 5 5 5 5 4 5 4 5 4 4 4 4 4 4 4 5 4 4 4 4 5 5 5 5 5 5 5 5 5 6 6 8 6 5 5 6 6 6 7 5 6 6 5 5
4 1 1 1 0 1 0 2 1 2 4 6 4 7 4 1 1 2 8 6 7 8 9 10 7 7 11 11 9 6 9 11 10 10 11 12 12 11 8 6 5 5 5 6 8 7 8 7 7 6 6 6 7 6 6 6 6 5 5 5 5 5 5 4 4 4 5 4 4 5 5 5 5 5 4 5 5 5 5 5 5 5 5 5 5 6 5 5 5 5 6 6 5 5 5 4 4
3 1 0 2 1 0 1 1 2 4 4 6 6 4 4 4 1 1 5 9 4 5 1 3 5 4 5 7 11 9 9 11 12 13 13 12 12 11 11 8 8 8 7 8 7 6 7 7 7 7 7 6 7 6 5 5 6 5 5 4 6 6 5 5 4 4 5 4 5 5 6 5 5 5 5 5 5 5 5 5 5 4 5 5 3 6 5 5 5 5 5 5 5 6 6 4 4
4 2 0 0 2 1 2 1 0 1 8 6 3 2 2 3 3 1 4 8 4 1 1 2 4 7 8 11 11 15 16 15 16 15 14 16 16 15 11 9 7 5 6 7 7 7 7 9 8 8 7 7 6 6 6 5 6 5 6 5 6 6 6 5 5 5 5 5 5 5 5 6 7 6 5 5 5 4 5 5 5 5 5 5 3 4 6 5 5 5 5 5 6 5 6 5 5
2 1 1 0 0 1 2 1 3 2 1 0 3 5 0 4 2 2 6 11 7 3 2 3 5 7 6 8 12 9 10 9 9 8 5 5 5 5 5 6 6 8 9 9 8 8 9 9 9 10 9 8 6 6 7 7 6 6 5 6 6 6 6 6 5 4 4 4 4 5 5 6 5 6 6 5 4 5 5 5 5 5 5 5 4 4 5 5 5 5 5 5 5 5 5 5 5
2 0 3 1 1 3 2 1 4 2 1 1 4 0 2 2 1 3 10 6 2 1 4 5 5 6 8 10 12 11 11 13 10 9 11 5 4 7 9 9 8 10 11 9 8 8 7 9 10 10 10 9 8 7 6 7 7 7 6 6 7 6 6 7 6 5 5 5 5 4 5 6 7 7 6 5 6 5 5 5 5 5 5 5 5 5 3 5 6 5 5 5 6 5 5 4 5
3 4 3 4 1 1 4 2 2 2 2 1 3 1 0 1 2 7 1 2 3 2 3 3 6 8 9 7 8 8 10 13 13 7 3 5 6 9 11 9 11 12 9 11 10 8 7 8 10 10 10 9 8 9 7 7 8 8 7 5 6 6 6 6 6 6 5 5 5 5 4 4 5 5 6 6 5 5 5 5 5 5 5 5 5 5 4 5 5 5 5 6 5 5 5 3 4
4 8 4 6 6 2 2 2 3 1 1 2 3 1 1 2 1 7 1 6 2 4 2 4 5 5 7 6 7 7 7 6 2 5 12 10 12 12 12 13 15 12 12 13 10 7 7 9 10 10 10 10 10 10 8 8 9 9 7 6 7 7 7 5 6 6 6 6 5 5 5 5 5 5 6 6 6 6 6 5 5 6 5 5 5 6 6 5 5 5 4 5 4 5 5 4 3
3 0 2 3 5 0 5 1 2 2 0 1 1 1 3 1 5 5 4 4 2 1 2 2 4 4 4 4 4 6 9 4 4 7 12 13 10 8 13 13 11 12 11 9 8 8 10 8 9 10 10 10 11 11 9 8 8 9 8 7 6 7 8 6 6 7 7 6 6 6 5 5 5 6 6 7 7 7 7 6 6 6 5 5 5 6 7 6 6 6 6 5 5 5 6 5 4
1 7 3 2 2 3 2 3 2 1 0 3 2 2 7 9 11 4 1 5 3 1 3 4 4 4 4 4 5 6 4 4 8 12 11 10 8 8 12 10 9 10 9 7 7 11 9 6 6 7 10 10 11 9 9 8 8 7 8 7 7 7 7 8 6 7 8 7 7 7 7 6 6 5 6 6 6 6 7 7 7 6 6 7 6 7 7 6 6 7 7 6 5 5 5 5 5
4 0 4 1 1 3 2 1 3 4 1 2 1 3 6 4 1 3 5 1 1 3 5 5 5 4 4 4 5 7 8 8 11 10 8 8 7 7 10 6 8 9 6 7 12 12 9 9 6 6 8 11 10 10 8 7 8 9 8 10 8 7 6 7 9 7 8 8 8 8 9 8 8 7 7 7 7 6 7 7 6 6 6 6 7 8 8 7 7 8 7 7 5 5 5 4 5
3 4 2 2 3 3 5 2 1 4 0 4 4 1 8 8 9 4 4 1 2 5 5 5 5 6 5 5 5 7 10 6 9 9 10 10 8 9 10 11 8 9 11 11 9 8 11 11 10 10 7 9 11 11 12 9 6 7 6 4 8 11 9 7 5 5 7 9 9 9 10 10 9 9 8 8 7 7 7 7 8 7 7 6 6 6 7 9 9 8 7 9 9 6 6 4 3
4 2 1 2 0 4 3 0 2 3 1 4 2 5 4 3 3 3 3 2 1 3 6 6 6 6 6 5 6 5 7 9 8 11 13 12 11 11 11 11 11 12 10 9 10 9 10 11 11 13 14 12 10 9 9 10 9 7 8 8 5 6 7 7 7 6 4 6 8 8 9 10 12 10 9 8 8 9 8 8 7 9 9 8 7 6 5 4 8 9 8 8 9 8 8 7 5
2 3 1 3 3 2 2 3 1 3 1 3 3 1 6 4 6 3 4 2 2 2 6 7 6 5 6 5 5 7 7 9 11 12 14 13 12 12 12 10 11 9 9 10 10 11 12 10 11 12 13 13 12 10 9 9 7 6 6 9 9 7 9 9 10 10 9 6 6 9 11 10 9 11 12 10 7 6 7 7 6 6 6 6 6 6 5 3 3 5 8 6 7 9 8 9 8
5 2 1 2 1 2 3 1 1 1 2 2 1 2 10 11 9 8 5 1 1 6 7 6 7 7 6 5 5 7 8 9 15 12 8 7 9 10 9 10 9 9 9 10 9 9 8 8 9 11 11 11 12 12 10 8 7 6 4 5 6 6 5 5 4 7 8 9 9 8 9 9 11 9 9 12 11 9 9 9 9 11 10 9 9 7 6 6 5 5 8 7 3 4 8 8 8
8 10 6 4 4 3 2 3 2 0 1 2 2 6 7 9 9 10 4 1 2 6 5 6 8 8 8 7 7 7 9 12 14 6 4 5 7 8 8 7 7 7 7 7 9 9 10 9 8 9 10 11 9 9 8 8 7 8 9 5 7 9 8 4 4 5 5 7 8 9 8 9 9 10 10 8 8 8 7 6 7 9 10 8 9 9 9 9 10 9 6 9 8 6 5 6 7
5 5 4 3 2 1 2 2 2 0 1 3 3 4 5 11 11 11 10 0 3 6 8 8 8 8 8 9 8 9 9 16 3 2 5 6 7 6 5 5 7 7 8 9 10 11 12 13 11 13 11 10 9 9 9 10 10 9 7 10 10 8 9 9 7 5 5 5 5 7 8 8 11 11 10 9 10 9 9 6 5 3 6 9 10 11 11 10 8 7 6 4 11 9 5 7 7
6 6 5 1 1 1 0 0 2 3 1 1 1 2 8 11 10 11 7 2 8 10 10 9 11 9 8 8 10 11 13 5 5 6 4 4 5 5 4 4 5 7 10 10 13 15 13 11 12 12 7 9 11 11 10 10 10 10 10 11 9 7 6 7 9 8 8 6 6 6 6 5 5 10 10 9 9 8 7 9 9 10 10 10 9 7 7 7 8 8 8 6 3 8 7 10 10
3 6 4 4 2 2 3 1 3 4 0 4 1 4 9 11 10 11 8 10 6 5 6 7 6 9 8 7 10 12 8 12 5 5 4 5 5 5 4 5 6 11 8 10 11 7 7 9 11 9 9 10 11 11 10 10 9 8 9 7 8 5 4 6 7 5 5 6 8 9 8 7 7 7 9 10 10 9 10 9 10 10 10 9 8 6 8 9 9 11 12 11 9 3 3 7 12
6 5 4 5 2 2 1 3 2 4 2 2 1 5 11 8 6 11 12 6 6 5 6 9 7 11 13 11 6 8 11 11 10 5 6 6 5 4 4 5 8 5 6 6 7 10 8 9 10 10 10 9 9 10 10 8 6 4 2 1 2 4 4 3 3 1 3 4 6 4 5 9 9 6 6 9 10 11 11 10 9 10 10 10 10 9 9 11 10 9 10 9 10 9 6 9 10
1 4 4 4 2 2 2 1 0 1 1 2 2 3 9 4 5 5 2 3 3 4 4 6 9 9 9 8 9 8 12 10 11 9 7 6 5 6 6 6 4 6 8 8 8 9 8 11 9 8 7 7 6 6 8 5 5 4 4 4 4 3 3 3 4 5 5 5 3 5 6 2 4 8 8 7 8 11 12 13 12 12 12 12 11 11 11 13 14 14 16 14 14 13 10 5 10
0 4 5 4 4 6 0 1 2 3 1 5 3 3 3 4 6 8 10 7 8 3 6 9 9 5 3 7 11 6 7 8 10 12 8 3 5 5 5 4 5 6 7 6 4 6 6 6 5 6 5 6 7 7 8 7 8 8 7 7 6 3 6 6 8 10 8 8 10 6 5 6 6 6 5 6 7 7 7 6 7 9 13 13 14 14 13 10 11 11 12 12 13 10 11 10 10
4 4 4 2 6 6 6 3 3 0 1 2 1 1 5 6 4 6 5 8 12 8 3 11 8 7 5 8 7 7 7 8 6 7 7 6 6 5 6 6 5 6 6 3 4 5 5 5 5 6 7 5 5 6 7 7 7 7 10 11 10 10 10 8 6 5 7 7 4 6 7 6 7 7 7 6 6 5 5 7 9 9 6 4 6 7 9 12 13 13 11 11 12 10 8 11 13
4 0 6 7 8 7 5 5 2 1 1 3 4 3 1 7 8 4 4 5 9 10 11 8 7 7 7 7 7 6 7 6 7 7 7 6 5 5 7 4 4 6 4 2 3 3 5 5 4 5 4 4 4 5 7 8 9 8 8 9 9 9 10 9 8 7 4 4 6 6 5 5 6 5 6 6 6 6 7 6 6 6 9 13 13 13 14 13 11 11 13 14 10 10 12 13 11
1 2 5 4 6 5 5 5 5 0 1 5 4 1 0 5 8 3 2 3 7 10 10 8 7 7 6 7 7 6 6 6 5 7 7 5 5 5 4 3 3 3 3 2 3 3 3 3 3 3 4 4 4 6 7 7 7 8 9 8 8 6 6 5 3 2 4 4 5 4 5 5 5 5 5 4 4 4 4 5 5 5 6 6 6 7 9 10 14 14 14 12 13 12 12 11 9
1 6 8 8 7 7 4 4 4 1 1 5 3 1 2 9 6 6 2 2 7 8 6 6 6 6 6 7 7 6 5 4 3 6 7 6 5 5 3 2 1 1 1 0 0 1 1 2 3 4 4 4 4 5 6 6 6 6 7 7 8 7 5 3 3 4 4 4 5 5 4 4 5 4 4 4 4 3 4 3 4 6 7 8 8 9 8 7 9 11 13 14 14 14 11 11 12
9 4 8 7 8 5 3 6 2 3 1 5 4 4 1 5 5 5 3 3 3 2 4 4 5 5 5 4 4 5 5 5 4 3 3 3 3 3 2 3 2 2 2 2 3 2 3 3 4 4 4 4 5 6 6 8 6 6 7 8 9 8 7 6 4 4 3 3 5 5 6 6 5 5 4 4 5 4 4 4 4 3 3 5 8 10 12 12 11 11 11 12 14 15 12 12 10
4 3 4 6 4 7 5 5 5 1 5 4 1 1 0 6 6 5 7 5 5 2 3 5 5 7 7 6 6 6 4 4 5 4 4 4 4 3 5 5 4 2 2 3 2 3 3 4 4 5 4 4 4 5 5 6 6 7 6 7 8 8 7 7 8 8 7 8 7 7 5 4 4 4 4 4 4 5 5 5 5 4 5 5 7 7 8 10 11 12 12 12 12 13 13 13 12
5 7 7 6 2 4 2 4 1 4 5 1 2 2 1 9 10 7 7 10 5 6 7 6 5 8 8 7 8 7 5 4 4 4 4 4 1 3 4 3 2 2 1 0 1 1 2 3 4 5 4 4 5 4 6 6 6 7 8 7 7 6 6 7 8 7 6 7 6 6 5 6 5 5 6 7 7 8 7 7 6 6 6 5 5 6 7 8 7 8 11 14 15 15 14 13 12
4 8 6 6 2 1 2 2 1 5 5 4 1 1 4 4 8 13 17 13 2 4 7 7 6 7 9 9 9 8 8 5 5 5 5 4 3 0 1 1 2 2 0 0 0 1 1 2 3 4 4 4 4 4 5 5 6 6 6 6 7 6 6 6 6 7 6 6 6 7 7 8 8 9 8 9 8 8 6 7 7 6 5 4 4 4 6 8 9 9 9 11 12 13 13 16 15
5 1 6 8 8 5 3 4 4 5 4 2 3 1 6 3 1 1 7 8 5 4 5 5 6 9 9 6 9 9 8 6 4 5 4 5 3 2 2 2 3 3 2 1 0 0 1 1 2 3 3 3 4 6 5 6 6 5 5 5 5 5 6 6 6 6 6 6 6 7 7 6 7 7 8 7 5 7 7 6 7 7 6 6 6 7 5 6 8 9 9 11 12 11 11 12 13
0 3 6 5 5 6 1 3 2 0 1 2 1 6 4 5 3 9 5 6 7 4 5 2 6 8 5 4 3 5 5 6 4 5 6 5 2 2 1 3 4 3 3 3 1 0 1 2 2 4 5 4 5 5 6 6 6 5 5 6 7 6 5 5 4 4 5 6 7 7 7 7 6 6 6 5 6 7 7 7 6 7 6 6 6 7 7 7 7 9 9 10 12 9 11 12 12
4 4 3 4 2 10 6 1 1 1 3 7 1 8 7 8 7 10 6 4 8 1 4 2 5 5 4 3 2 4 4 4 4 4 5 7 6 2 1 1 2 3 3 2 2 2 3 3 3 4 4 4 5 6 6 6 5 5 6 6 6 6 7 7 8 8 8 7 6 6 6 6 5 4 5 5 6 6 6 6 7 6 6 6 6 6 7 7 7 9 10 11 12 10 10 13 13
8 1 7 2 2 5 5 3 2 4 3 8 2 8 5 3 7 5 4 3 8 5 5 3 5 4 3 4 3 3 4 5 4 4 5 5 5 6 4 2 2 2 2 3 3 3 4 4 4 5 4 7 7 6 6 6 7 7 7 7 7 7 7 7 7 7 6 6 5 5 4 5 6 7 6 5 5 6 6 7 6 6 6 7 7 6 7 7 7 7 9 10 10 10 12 11 11
3 3 4 6 3 1 2 4 1 0 2 6 4 2 5 7 7 5 3 1 5 8 5 1 4 4 3 4 4 6 5 5 5 5 5 4 4 3 3 3 1 1 2 2 3 3 2 3 4 5 6 7 7 6 5 5 5 6 6 7 7 7 6 6 6 6 5 6 7 6 7 7 5 4 6 5 6 6 6 6 6 7 7 7 7 7 7 7 6 7 7 8 8 8 9 10 10
2 3 4 0 3 2 4 6 3 5 4 2 8 3 7 7 6 8 7 4 3 5 5 6 7 6 4 4 3 4 3 3 3 3 3 3 3 3 3 5 6 6 4 3 2 1 1 2 2 3 4 4 4 5 4 5 6 5 6 4 5 5 6 7 7 7 7 7 7 7 7 6 7 6 6 6 6 7 7 7 7 7 7 6 6 7 7 7 7 8 7 7 7 8 9 10 10
3 3 1 0 2 1 4 1 3 4 5 5 2 7 6 7 7 7 10 8 7 7 7 8 4 5 4 4 3 1 1 1 1 1 2 4 5 6 6 5 5 4 3 3 5 6 6 6 6 4 5 6 5 6 5 6 4 5 5 6 6 6 7 6 6 6 7 7 6 6 6 6 4 6 6 7 7 7 7 7 7 7 8 7 7 7 6 6 8 8 7 7 6 8 10 9 8
9 11 11 12 9 4 4 7 3 1 3 4 3 10 3 5 3 8 8 10 8 4 2 4 3 2 2 2 1 1 1 1 1 1 2 3 4 5 5 7 6 7 7 7 7 6 6 6 5 6 5 6 6 7 6 6 4 5 5 6 6 5 5 5 7 7 8 8 6 6 6 4 6 6 6 8 8 7 7 7 8 8 7 7 7 7 6 7 8 8 8 7 7 8 9 9 8
Wind_Direction
336 341 308 260 58 100 54 0 140 322 61 289 73 99 191 38 195 90 169 2 113 251 205 65 136 138 167 206 187 176 234 130 197 129 211 234 245 128 129 121 121 122 125 134 144 135 123 138 143 135 133 126 122 119 114 112 111 108 105 102 102 100 98 95 96 96 95 92 86 95 98 103 102 99 95 94 95 95 93 91 88 83 83 84 84 86 88 84 80 82 82 80 78 75 72 75 77
333 325 343 342 53 53 308 123 97 354 39 56 237 107 245 298 95 206 164 194 200 189 187 103 93 110 63 66 108 145 40 350 173 149 235 146 89 98 146 131 130 132 132 126 119 100 114 141 145 139 133 129 125 118 116 116 114 111 107 104 101 98 94 94 97 97 92 94 95 96 102 102 98 100 96 94 95 97 98 92 89 90 88 85 84 84 84 87 88 86 86 84 82 80 80 80 79
344 339 290 27 33 73 96 31 277 31 100 157 263 207 335 138 194 195 215 215 200 145 112 108 108 54 4 309 34 40 211 49 149 245 87 123 136 166 142 134 129 133 135 121 117 114 122 144 150 140 135 131 127 123 120 119 116 110 105 103 100 99 96 95 96 100 99 95 92 98 104 102 100 99 97 97 99 99 96 92 89 88 88 84 86 88 87 87 87 83 80 83 83 84 84 82 82
352 354 141 66 221 30 58 27 89 126 133 204 314 269 179 180 225 197 236 235 151 93 350 291 97 251 59 42 220 98 56 131 176 163 138 170 221 131 143 139 131 135 126 125 122 122 137 142 151 140 137 133 129 124 124 121 117 110 105 103 101 101 100 98 100 99 96 100 101 97 99 99 97 97 97 100 101 101 99 94 93 90 86 85 85 86 87 87 85 82 80 80 80 80 82 84 83
183 344 78 102 107 13 106 123 137 97 183 198 178 262 250 204 190 197 238 233 205 122 19 195 79 343 195 119 176 121 214 142 222 161 102 96 137 139 138 136 131 137 142 133 124 133 147 146 150 147 137 137 133 130 130 127 119 114 108 106 106 105 106 106 104 100 100 92 90 100 104 101 99 98 97 100 102 101 100 99 95 88 88 91 94 91 92 90 88 88 83 82 85 86 86 87 85
56 42 7 82 51 161 66 72 44 167 221 151 123 218 218 209 170 193 162 224 240 218 209 164 173 197 29 335 177 104 203 108 176 228 158 220 149 139 140 128 131 133 144 136 130 139 156 159 158 153 143 142 137 137 136 131 125 120 116 112 111 110 109 111 108 109 106 105 103 98 99 97 101 101 99 99 102 106 105 100 96 94 92 91 90 96 96 94 90 90 90 87 87 87 87 85 82
234 46 357 36 37 47 177 133 204 190 278 158 200 201 193 194 209 133 136 113 305 59 148 204 93 116 72 302 21 252 206 209 109 216 169 147 138 141 142 137 133 138 143 146 129 144 158 179 164 156 150 145 139 140 139 132 128 123 120 117 116 115 113 112 111 102 98 104 106 101 97 98 102 103 105 103 103 107 105 104 100 95 94 92 94 90 91 91 91 88 87 90 90 86 83 82 81
51 137 313 112 217 47 49 185 185 162 347 188 253 214 185 179 157 147 176 117 235 175 356 223 30 104 242 87 164 241 317 229 219 328 155 131 139 141 144 141 135 140 148 153 136 144 171 182 177 156 151 146 142 146 137 133 128 126 124 121 119 118 118 114 109 103 103 107 108 106 102 102 103 102 104 106 106 107 107 105 99 96 97 97 94 94 93 92 91 91 93 94 91 88 87 85 84
3 84 269 72 59 26 58 89 244 237 284 296 291 222 231 155 157 134 159 245 328 175 190 197 238 75 229 46 157 277 300 311 290 177 140 137 146 143 144 147 142 140 149 160 145 151 160 186 179 160 149 147 149 146 139 134 132 130 126 123 121 120 118 115 111 107 104 103 105 106 105 102 106 105 105 107 109 110 110 105 103 98 93 96 98 97 97 97 97 96 95 96 95 91 87 86 86
34 53 284 117 135 58 24 292 101 183 243 242 230 225 147 176 150 111 151 80 210 121 211 33 150 83 136 132 343 5 57 331 66 106 142 145 146 142 142 149 144 143 151 159 158 152 144 181 175 159 153 149 153 144 141 136 135 131 129 124 123 121 119 120 115 109 106 109 108 109 109 108 105 107 107 107 111 112 114 115 110 104 100 98 99 97 96 97 97 97 96 96 92 90 90 91 92
6 17 132 77 26 89 167 239 278 317 316 319 299 232 207 127 120 115 80 170 33 151 224 214 24 138 77 263 212 261 309 297 141 158 154 143 145 150 142 142 144 147 153 155 159 149 148 163 166 159 160 157 155 147 142 145 141 137 133 130 125 124 122 121 121 112 107 111 114 113 111 113 110 107 106 108 113 117 118 118 114 107 103 100 99 100 101 99 99 100 99 95 95 97 95 94 92
12 29 15 101 167 155 226 162 291 286 303 345 181 333 186 138 105 124 164 128 216 182 163 146 234 149 68 341 300 290 319 147 191 154 149 135 147 149 137 133 141 148 151 153 148 149 147 148 157 161 162 159 157 149 147 148 147 141 137 134 131 127 126 124 124 121 114 115 121 118 117 119 116 115 113 113 117 121 123 120 120 112 111 109 108 108 107 104 103 102 102 102 101 98 93 90 85
110 94 83 84 219 150 186 109 258 322 347 277 176 76 130 111 191 194 177 112 88 128 295 210 146 89 147 182 256 315 163 219 194 149 147 141 143 133 127 131 142 147 148 147 148 149 148 146 148 155 160 162 155 152 150 149 150 144 141 138 135 132 131 130 128 128 122 117 119 122 114 109 123 118 114 118 121 122 124 122 118 115 111 114 114 113 112 108 106 105 106 106 103 95 90 86 84
114 177 129 179 53 117 131 173 21 135 268 245 263 121 173 137 249 177 133 137 195 160 251 173 140 138 112 359 306 300 237 205 152 135 133 131 129 131 137 139 146 153 156 157 158 153 151 150 149 149 146 159 155 152 156 155 152 148 141 136 134 133 135 133 131 130 127 113 95 90 93 94 101 114 118 120 125 125 110 106 113 119 114 117 117 113 112 109 107 108 107 104 98 90 87 86 84
117 148 82 113 45 75 233 117 191 146 235 197 193 138 185 272 109 155 171 148 237 213 337 139 180 121 234 143 272 213 193 172 138 125 119 118 125 135 137 143 151 155 164 167 160 159 159 152 152 147 152 159 158 158 161 164 157 150 141 139 135 134 132 130 131 119 110 110 106 98 91 89 87 94 105 107 107 104 106 111 118 119 121 120 116 118 116 115 115 112 106 97 90 88 86 84 82
135 90 82 102 162 134 227 115 40 94 261 184 114 129 150 309 176 137 243 154 158 355 91 199 42 211 169 142 273 238 189 136 135 121 114 120 130 133 137 141 121 155 172 170 169 166 167 148 124 157 155 162 161 159 165 162 161 152 146 140 140 136 133 129 121 115 108 102 102 101 97 91 88 88 94 104 114 112 101 108 117 118 121 127 123 123 122 120 119 115 110 99 93 89 84 80 80
80 78 66 43 173 177 212 135 139 198 241 243 292 144 166 217 212 248 14 68 120 181 353 263 175 357 180 203 222 279 190 126 123 119 117 123 138 140 143 140 135 158 147 179 176 172 171 165 167 162 165 163 164 163 162 163 165 152 145 144 142 139 135 128 119 111 105 101 103 104 99 94 96 94 90 99 102 108 106 108 115 114 127 131 128 126 126 124 119 115 110 96 89 84 77 70 69
55 72 114 90 196 150 202 173 186 205 135 214 180 200 144 210 169 201 103 33 61 355 204 305 299 233 259 271 279 243 160 134 144 140 149 142 153 157 167 159 158 179 171 167 178 183 173 173 167 171 163 173 167 166 166 166 157 155 146 146 137 134 129 124 122 123 114 111 109 104 106 107 101 98 100 106 109 111 108 107 111 118 120 111 125 127 125 118 117 115 101 91 87 80 72 69 61
93 119 90 208 176 233 158 193 188 117 246 164 182 159 175 216 146 221 118 282 36 132 279 11 309 292 328 329 197 136 149 142 155 160 160 166 169 171 165 164 173 169 186 179 175 186 188 182 180 179 183 173 168 172 170 163 159 156 150 144 132 129 133 129 128 125 125 124 117 112 110 114 111 102 109 116 119 114 111 105 98 101 107 110 121 121 122 123 118 106 92 89 83 76 71 72 67
199 117 190 254 204 224 205 159 192 206 135 142 150 203 160 252 146 122 198 176 67 197 208 324 254 242 246 301 137 150 153 154 163 168 173 176 180 176 173 180 182 189 187 188 180 183 185 189 179 184 184 166 158 161 178 168 166 159 157 151 137 131 135 135 131 131 133 131 126 122 119 116 112 109 107 111 109 103 105 100 83 87 98 95 92 95 103 113 100 86 87 83 76 71 75 71 77
210 85 164 231 193 123 220 182 217 202 156 145 144 94 153 244 209 161 160 113 258 264 233 181 202 213 187 189 169 159 159 161 170 179 182 185 189 188 197 197 197 192 187 175 187 189 190 187 187 190 190 182 174 167 182 172 170 163 162 157 143 144 141 139 140 139 142 136 130 127 126 121 116 113 113 106 102 105 101 94 84 86 89 90 91 90 84 76 73 82 74 73 76 86 87 77 87
94 201 206 192 193 55 255 189 188 156 187 116 132 136 206 105 65 117 149 172 221 214 229 212 207 169 157 170 182 168 169 171 179 184 191 190 191 195 193 198 192 195 173 185 195 193 192 188 188 189 192 193 187 178 187 180 174 178 169 166 151 150 149 150 150 150 149 145 140 133 125 120 121 121 121 117 109 111 107 93 97 104 99 104 107 105 92 93 84 86 87 84 73 70 72 80 77
178 321 305 201 228 112 322 306 273 142 129 143 146 198 104 149 181 206 176 204 231 231 249 224 196 175 169 151 152 170 175 184 187 193 191 194 199 202 200 193 190 195 192 202 191 197 191 189 189 187 198 193 193 188 189 177 189 182 174 169 156 156 153 157 167 162 161 154 149 147 140 138 135 136 131 132 129 123 115 103 105 105 110 109 110 113 102 95 100 94 90 86 81 82 73 59 64
103 186 92 299 199 35 288 292 269 203 139 182 182 109 130 143 192 117 206 242 218 128 268 259 166 133 152 150 178 174 184 186 197 198 194 196 195 199 195 195 195 193 203 202 195 195 191 193 190 189 198 198 193 190 184 159 190 187 178 168 174 160 160 174 174 175 160 162 160 159 147 148 148 146 145 144 143 131 126 113 109 104 106 105 95 106 113 102 98 98 100 93 93 88 97 83 71
103 160 202 183 91 298 330 53 80 125 89 333 116 132 241 180 168 91 246 246 253 288 56 91 130 137 151 166 177 190 192 200 207 209 216 224 214 209 208 204 197 194 211 204 196 195 197 192 189 194 196 199 196 190 195 191 196 193 181 180 184 162 175 178 170 160 170 166 165 161 154 149 149 148 153 153 142 142 128 124 123 119 117 116 111 97 112 117 106 109 107 106 100 100 93 91 89
144 163 117 81 57 324 332 69 46 44 111 86 89 31 329 236 228 250 239 255 320 218 72 117 127 147 171 183 186 184 193 201 201 202 208 194 187 198 214 209 204 207 211 209 204 200 189 188 190 195 196 197 196 195 197 191 196 197 195 187 184 171 183 177 159 169 173 169 173 174 171 161 162 160 155 150 153 151 140 126 126 132 130 134 125 121 114 116 121 111 108 108 107 98 94 91 95
136 97 91 93 310 315 0 124 360 334 103 309 145 243 158 325 90 279 349 284 316 91 98 135 151 180 192 189 192 199 194 202 201 189 162 196 206 207 214 210 212 217 207 214 211 207 193 187 194 192 197 195 195 200 197 194 192 203 201 188 182 184 179 170 170 170 168 182 178 173 173 168 156 156 154 155 152 148 147 141 138 135 133 141 136 126 115 120 115 117 125 125 119 112 101 92 98
79 134 104 25 345 58 6 71 10 351 46 34 134 162 290 302 102 230 254 327 300 152 139 163 184 196 201 205 200 205 215 220 167 165 202 193 207 206 207 207 212 209 210 216 210 198 197 201 199 195 197 195 197 202 198 194 191 198 202 193 189 182 181 174 174 174 178 180 172 177 176 168 161 158 157 157 155 154 156 154 149 148 152 148 143 137 127 121 119 110 101 104 107 108 103 83 67
147 208 120 313 3 14 4 93 322 9 62 6 287 73 302 209 228 249 257 333 69 148 177 210 225 228 230 225 221 216 221 201 195 212 216 213 211 206 214 215 210 209 220 216 209 205 211 203 203 196 196 196 198 201 200 197 187 189 198 203 193 182 188 184 178 182 180 175 175 177 179 172 169 164 167 165 163 165 163 161 163 164 157 151 145 141 130 128 121 117 106 109 103 101 99 90 84
117 46 119 40 9 342 315 312 326 85 263 0 351 239 267 257 250 272 345 5 32 119 245 239 238 245 252 244 229 240 238 208 216 220 220 220 216 213 221 219 213 215 216 211 210 217 210 209 203 202 200 203 198 200 201 201 190 185 190 200 194 188 191 196 189 178 180 180 175 182 182 179 176 173 167 171 170 169 171 172 172 168 164 159 151 151 146 146 138 134 134 124 120 120 114 111 108
132 275 60 119 90 244 309 4 312 138 336 0 116 197 286 276 284 299 307 356 154 245 254 261 258 254 246 241 244 243 245 222 228 233 234 230 227 223 228 224 215 217 212 209 213 217 207 214 201 211 203 209 203 206 208 208 194 179 191 191 193 196 192 196 193 183 182 183 179 182 185 184 186 181 180 176 179 174 174 176 175 180 165 161 163 168 155 152 146 146 148 132 126 113 112 101 103
35 77 273 327 163 276 295 23 14 172 330 30 93 313 243 261 277 292 330 350 163 246 264 269 270 263 248 239 240 245 246 239 248 245 238 233 223 226 222 225 212 212 212 211 214 207 215 213 208 216 207 212 211 210 213 219 212 194 171 210 199 189 192 199 200 204 184 185 185 183 186 186 188 187 185 183 179 179 179 184 182 165 166 165 170 172 166 162 161 153 158 147 136 134 125 102 88
5 96 258 227 95 253 347 157 12 332 134 6 151 224 318 329 253 280 336 55 78 239 279 276 271 263 255 245 240 249 269 262 248 242 237 228 226 222 222 223 215 215 212 207 206 202 214 211 208 211 215 216 214 209 208 210 213 218 206 198 206 195 193 203 201 186 196 189 187 189 190 189 185 185 189 189 187 182 180 188 187 175 170 172 173 175 185 180 161 156 158 163 150 144 140 127 113
258 43 149 211 173 242 250 306 317 6 97 217 10 234 235 245 286 292 319 79 34 275 274 280 271 260 254 246 234 240 243 256 253 239 235 221 226 219 222 220 219 215 215 212 208 203 210 206 206 210 213 214 217 217 208 206 196 192 202 200 196 214 214 203 202 195 194 188 188 194 186 190 201 190 179 181 193 197 191 178 160 156 163 161 161 168 171 150 170 161 151 156 152 144 146 144 137
193 169 100 277 282 217 229 136 225 22 16 177 347 277 276 276 286 287 272 246 288 267 260 275 286 281 278 266 259 247 245 248 251 242 236 226 228 228 222 220 216 212 214 212 209 211 207 206 206 211 211 208 211 212 216 215 211 211 210 196 190 202 216 205 200 214 205 193 184 191 199 193 187 196 201 184 183 187 191 186 175 170 172 176 168 170 166 162 172 177 161 144 121 122 145 147 136
184 179 176 144 153 221 208 245 281 160 161 244 229 231 277 293 296 292 290 168 205 261 282 283 276 273 270 260 254 253 246 254 250 258 245 230 222 219 220 215 214 211 211 206 209 207 208 208 206 210 210 206 204 206 202 206 205 208 213 220 224 217 216 208 201 214 202 205 201 179 184 195 193 193 190 194 191 175 183 192 192 174 170 171 172 173 174 177 180 174 174 151 136 112 104 125 127
107 84 101 166 162 272 276 285 279 316 107 242 244 278 277 278 273 276 280 100 288 277 270 258 257 262 258 257 252 250 249 244 287 231 232 236 239 229 222 204 211 203 205 202 204 208 206 205 195 210 205 195 194 196 196 194 198 204 211 210 216 211 211 214 218 215 209 205 190 191 185 191 188 190 194 189 191 180 174 165 164 194 175 170 181 191 185 176 170 159 146 165 151 143 136 142 141
138 138 135 195 238 129 237 127 346 316 153 282 41 326 274 263 274 271 280 330 271 251 256 261 259 249 249 249 260 252 246 291 295 289 286 280 265 261 239 213 194 198 219 201 205 208 205 201 202 211 190 195 199 198 196 197 199 201 198 207 208 202 197 199 209 209 213 203 196 192 191 205 182 184 186 189 190 189 180 169 177 184 187 194 192 183 171 164 161 157 153 152 207 163 159 169 162
61 145 154 103 246 249 292 294 339 328 74 266 17 346 281 275 267 272 260 252 242 237 219 239 243 264 258 249 250 266 287 276 265 257 284 267 264 262 234 220 216 217 215 203 216 207 203 203 210 205 197 195 201 197 192 201 201 203 201 208 199 203 213 203 205 199 197 206 208 201 198 203 198 184 182 185 190 192 190 182 184 181 189 181 170 170 172 173 177 171 171 169 163 186 153 185 181
112 102 119 195 234 122 251 284 341 354 70 320 321 325 284 284 283 266 266 253 266 254 250 254 235 247 251 249 251 264 272 274 283 273 259 254 256 256 242 232 227 226 231 216 209 208 205 208 209 202 201 198 196 197 199 202 194 185 186 146 191 177 186 178 181 134 205 218 226 230 220 196 194 202 182 188 192 194 192 190 179 176 183 182 180 177 181 188 179 173 173 176 163 161 184 198 210
5 115 122 120 163 225 149 185 350 333 39 55 3 307 301 330 331 327 323 329 311 291 325 278 260 243 263 288 282 247 259 273 284 289 269 270 277 258 229 231 226 220 223 219 207 206 204 210 210 203 198 197 197 189 191 166 136 127 113 69 66 75 47 105 174 222 213 215 235 213 213 220 219 195 185 195 206 200 192 188 183 185 184 187 187 190 191 190 188 187 185 180 183 178 176 188 207
5 229 167 192 172 138 256 14 104 22 335 1 51 359 315 303 290 248 282 345 322 303 331 283 269 273 283 269 264 272 254 248 249 263 271 255 253 281 290 268 237 236 235 230 212 216 210 211 195 193 190 187 192 187 177 165 174 168 161 164 169 179 199 178 201 211 204 206 213 195 196 199 200 215 213 200 201 211 208 206 204 193 189 185 187 190 190 185 188 187 189 186 190 196 183 173 194
116 238 167 146 138 119 119 111 77 11 146 354 8 152 269 320 293 287 324 336 306 312 263 270 294 302 280 260 269 271 266 278 272 271 276 278 262 259 272 272 246 242 246 221 217 215 214 207 194 191 192 187 178 172 169 168 175 181 187 195 198 200 206 215 213 213 203 214 193 193 204 198 202 203 211 208 211 212 210 194 183 181 193 213 207 193 184 186 187 191 187 194 198 189 170 189 192
202 254 122 114 110 125 150 104 105 183 252 294 38 96 218 306 284 260 321 321 301 313 298 305 311 299 294 286 279 277 275 264 269 275 278 268 268 240 256 251 253 247 268 244 228 218 209 208 187 190 181 170 167 160 170 180 184 187 194 203 206 209 210 215 199 208 202 174 191 205 198 205 204 209 208 208 211 213 213 208 203 201 193 194 187 196 197 195 190 191 192 198 190 190 191 194 189
219 199 122 118 129 135 113 90 103 146 23 280 331 329 299 253 267 316 352 330 307 290 291 302 301 301 302 307 304 297 279 267 253 263 270 274 278 280 267 280 288 296 281 241 232 223 217 192 172 155 163 157 165 166 174 189 192 189 196 199 211 222 217 223 182 162 177 170 196 204 206 212 210 212 216 212 207 214 221 230 215 200 194 200 203 214 208 197 195 189 189 190 196 199 200 204 185
248 129 93 95 81 72 89 101 79 339 67 273 232 354 195 277 277 330 333 233 265 269 283 285 285 299 308 317 321 315 307 295 259 242 260 274 270 277 289 290 356 338 320 317 20 116 129 124 138 142 162 162 161 169 178 188 195 187 194 202 211 218 215 208 150 176 182 169 201 203 210 216 218 217 214 213 207 198 204 224 241 213 198 187 182 199 203 207 206 200 195 197 199 203 204 205 205
132 108 76 43 39 29 31 64 84 58 358 253 255 303 151 295 275 231 144 213 199 258 302 287 303 324 321 303 290 304 315 318 318 303 262 253 274 291 341 39 4 17 33 82 77 98 115 130 136 154 174 159 165 178 178 190 193 190 201 203 209 213 208 196 189 198 175 175 207 212 206 215 212 219 213 218 208 197 207 206 211 235 225 198 193 194 197 197 195 200 204 203 200 199 202 207 221
119 97 127 77 1 11 29 346 32 116 270 261 275 279 31 182 290 289 238 280 233 200 249 283 306 317 312 312 312 310 303 302 308 323 324 339 353 4 19 24 7 2 56 57 87 103 127 140 146 160 164 170 175 178 181 193 190 201 207 204 210 214 201 197 205 209 200 205 205 212 211 207 224 229 231 237 226 213 212 214 212 215 214 203 208 212 214 207 198 193 193 197 209 214 210 201 204
80 91 73 109 235 37 292 13 280 214 200 240 332 191 353 241 232 258 291 264 247 217 219 235 261 294 301 305 302 298 296 312 313 314 321 327 12 354 358 342 348 19 15 357 96 125 132 139 156 163 199 187 185 179 189 195 196 206 204 208 215 208 206 205 211 216 204 211 206 212 193 210 207 215 221 219 225 217 214 216 212 212 215 214 214 207 214 211 208 208 205 200 200 201 207 211 209
105 131 136 101 105 59 242 277 256 307 293 266 311 233 268 252 272 244 246 258 163 209 218 229 239 258 282 284 301 313 314 309 308 313 305 294 302 61 300 292 310 312 339 339 14 138 142 155 167 180 213 188 188 184 196 200 212 212 208 210 212 202 212 206 213 212 213 211 204 212 208 208 209 212 210 216 215 216 217 219 217 220 217 217 217 217 214 213 206 203 205 213 215 214 206 204 210
204 58 136 174 142 155 206 195 205 215 205 288 281 66 231 112 241 221 217 250 273 259 256 258 260 258 260 282 288 296 304 306 329 318 297 288 313 356 320 295 304 308 315 349 37 108 129 173 176 204 224 213 193 202 196 209 216 215 214 216 215 205 213 209 215 211 208 207 212 215 218 216 215 219 212 219 208 208 217 217 219 221 219 223 224 228 219 212 214 212 211 213 214 212 215 216 220
350 160 84 88 224 138 132 209 142 232 351 356 241 216 190 177 278 283 243 279 287 277 278 245 262 258 290 302 317 293 290 298 329 322 316 310 341 337 320 310 307 310 318 335 357 39 169 220 215 223 221 213 206 203 211 210 218 211 211 213 218 212 214 212 218 211 213 205 211 208 220 216 221 220 222 209 213 203 211 216 220 224 224 225 229 234 233 224 211 212 215 213 217 208 213 215 221
221 105 193 206 128 98 98 63 13 78 44 259 159 309 288 297 321 277 316 305 278 313 300 309 267 280 316 318 330 287 283 305 319 308 305 315 329 337 16 296 285 295 302 274 256 210 202 208 215 246 248 241 220 213 213 209 212 206 219 216 216 212 210 211 213 214 213 212 209 213 216 221 218 217 223 211 214 211 212 211 214 218 218 220 223 229 234 234 224 215 213 211 217 209 212 217 216
94 173 228 173 135 124 125 210 352 63 187 265 84 235 298 21 283 327 343 289 278 291 273 281 288 298 322 302 289 289 306 307 282 280 282 281 286 306 316 271 230 223 219 238 241 223 208 199 196 224 242 236 235 216 214 208 208 213 218 218 219 215 214 218 217 220 214 210 215 216 218 222 216 214 209 213 211 212 215 213 214 216 214 213 219 223 229 233 228 227 224 223 220 210 214 219 221
142 198 192 113 222 203 322 90 251 159 267 272 298 281 261 188 239 333 0 214 249 254 257 297 280 284 284 303 311 312 315 337 351 347 349 345 325 301 288 291 256 224 234 226 237 230 213 211 208 207 231 238 240 229 217 219 212 217 216 218 215 217 220 223 224 225 217 213 215 211 214 220 218 207 210 207 210 214 213 217 216 220 215 217 218 219 218 226 224 232 226 226 217 208 211 217 218
43 96 83 95 101 157 124 197 177 124 241 52 288 36 254 197 215 202 220 231 222 238 279 255 233 247 261 286 283 269 308 325 316 320 312 304 308 315 331 349 354 350 345 330 299 254 205 209 213 229 248 253 276 258 230 222 221 220 227 221 223 217 218 216 218 217 221 221 218 213 216 215 216 209 209 208 209 211 211 216 217 219 221 222 219 219 213 217 220 230 227 223 216 209 217 218 218
83 89 155 145 35 224 105 29 128 183 174 182 247 312 279 260 216 188 217 211 220 196 214 237 238 253 257 266 256 277 301 290 296 297 322 342 356 356 356 354 339 325 324 346 9 357 334 334 325 326 311 305 284 267 248 242 221 230 227 227 223 215 224 220 223 220 225 228 224 218 216 216 206 216 202 211 213 212 213 213 216 217 218 218 216 218 215 216 223 229 226 223 214 212 219 224 219
165 164 190 171 130 138 158 254 35 95 123 231 135 260 245 271 180 204 210 224 222 246 235 246 243 249 261 266 286 142 355 282 255 279 296 332 343 342 342 350 352 4 358 353 339 344 331 320 312 318 317 281 276 274 250 251 237 236 232 235 231 226 223 222 226 224 225 226 224 218 214 205 215 220 201 216 215 215 212 213 216 220 220 221 218 218 214 214 224 229 232 223 221 215 220 225 216